When you browse on this site, cookies collect data to enhance your experience and personalize the content and advertising you see.
Visit our Privacy Policy to learn more. By continuing to use the site, you agree to this use of cookies and data.

Hourly Weather Volnyy Trud

Today, 4 August, Tuesday

Time Temperature Precipitation Wind Pressure Humidity
00:00 +15°C° 0 mm 2 mps 749 mmHg 83%
01:00 +15°C° 0 mm 2 mps 749 mmHg 84%
02:00 +15°C° 0 mm 2 mps 750 mmHg 83%
03:00 +15°C° 0 mm 2 mps 750 mmHg 82%
04:00 +14°C° 0 mm 3 mps 750 mmHg 81%
05:00 +14°C° 0.1 mm 3 mps 750 mmHg 83%
06:00 +14°C° 0.1 mm 4 mps 750 mmHg 84%
07:00 +14°C° 0.1 mm 4 mps 750 mmHg 86%
08:00 +14°C° 0.3 mm 4 mps 750 mmHg 86%
09:00 +15°C° 0.3 mm 5 mps 750 mmHg 85%
10:00 +15°C° 0.3 mm 5 mps 750 mmHg 85%
11:00 +15°C° 0.5 mm 6 mps 750 mmHg 85%
12:00 +15°C° 0.5 mm 6 mps 750 mmHg 85%
13:00 +16°C° 0.5 mm 6 mps 750 mmHg 84%
14:00 +15°C° 0.2 mm 6 mps 750 mmHg 85%
15:00 +15°C° 0.2 mm 7 mps 751 mmHg 85%
16:00 +15°C° 0.2 mm 7 mps 751 mmHg 86%
17:00 +15°C° 0 mm 7 mps 751 mmHg 85%
18:00 +15°C° 0 mm 6 mps 751 mmHg 85%
19:00 +15°C° 0 mm 6 mps 751 mmHg 84%
20:00 +15°C° 0 mm 6 mps 751 mmHg 86%
21:00 +14°C° 0 mm 6 mps 751 mmHg 87%
22:00 +13°C° 0 mm 5 mps 751 mmHg 88%
23:00 +13°C° 0 mm 5 mps 751 mmHg 89%

Tomorrow, 5 August, Wednesday

Time Temperature Precipitation Wind Pressure Humidity
00:00 +13°C° 0 mm 5 mps 751 mmHg 90%
01:00 +13°C° 0 mm 5 mps 751 mmHg 91%
02:00 +13°C° 0 mm 5 mps 751 mmHg 91%
03:00 +14°C° 0 mm 6 mps 751 mmHg 91%
04:00 +14°C° 0 mm 6 mps 752 mmHg 91%
05:00 +14°C° 0 mm 6 mps 752 mmHg 91%
06:00 +15°C° 0 mm 6 mps 751 mmHg 91%
07:00 +15°C° 0 mm 5 mps 751 mmHg 92%
08:00 +16°C° 0.3 mm 5 mps 751 mmHg 90%
09:00 +19°C° 0.3 mm 5 mps 752 mmHg 89%
10:00 +20°C° 0.3 mm 5 mps 752 mmHg 87%
11:00 +21°C° 0 mm 5 mps 752 mmHg 86%
12:00 +22°C° 0 mm 5 mps 751 mmHg 85%
13:00 +22°C° 0 mm 4 mps 751 mmHg 83%
14:00 +25°C° 0 mm 4 mps 751 mmHg 81%
15:00 +26°C° 0 mm 4 mps 751 mmHg 78%
16:00 +27°C° 0 mm 4 mps 752 mmHg 76%
17:00 +26°C° 0.1 mm 4 mps 751 mmHg 79%
18:00 +26°C° 0.1 mm 4 mps 751 mmHg 81%
19:00 +25°C° 0.1 mm 4 mps 751 mmHg 84%
20:00 +23°C° 0 mm 4 mps 751 mmHg 87%
21:00 +22°C° 0 mm 3 mps 751 mmHg 91%
22:00 +20°C° 0 mm 3 mps 752 mmHg 94%
23:00 +20°C° 0 mm 3 mps 752 mmHg 94%

Day after tomorrow, 6 August, Thursday

Time Temperature Precipitation Wind Pressure Humidity
00:00 +20°C° 0 mm 3 mps 752 mmHg 94%
01:00 +20°C° 0 mm 3 mps 752 mmHg 95%
02:00 +19°C° 0 mm 2 mps 752 mmHg 95%
03:00 +19°C° 0 mm 2 mps 752 mmHg 95%
04:00 +18°C° 0 mm 2 mps 752 mmHg 95%
05:00 +19°C° 0 mm 2 mps 752 mmHg 94%
06:00 +20°C° 0 mm 2 mps 752 mmHg 93%
07:00 +20°C° 0 mm 3 mps 752 mmHg 92%
08:00 +22°C° 0 mm 3 mps 752 mmHg 86%
09:00 +24°C° 0 mm 3 mps 752 mmHg 81%
10:00 +26°C° 0 mm 3 mps 752 mmHg 76%
11:00 +27°C° 0 mm 3 mps 752 mmHg 71%
12:00 +28°C° 0 mm 3 mps 752 mmHg 67%
13:00 +29°C° 0 mm 3 mps 752 mmHg 62%
14:00 +29°C° 0 mm 3 mps 751 mmHg 61%
15:00 +29°C° 0 mm 3 mps 751 mmHg 60%
16:00 +29°C° 0 mm 3 mps 751 mmHg 59%
17:00 +28°C° 0 mm 2 mps 751 mmHg 64%
18:00 +27°C° 0 mm 2 mps 751 mmHg 68%
19:00 +27°C° 0 mm 2 mps 750 mmHg 73%
20:00 +25°C° 0 mm 2 mps 750 mmHg 76%
21:00 +24°C° 0 mm 2 mps 750 mmHg 79%
22:00 +21°C° 0 mm 2 mps 750 mmHg 82%
23:00 +21°C° 0 mm 2 mps 750 mmHg 84%

7 August, Friday

Time Temperature Precipitation Wind Pressure Humidity
00:00 +20°C° 0 mm 2 mps 750 mmHg 86%
01:00 +20°C° 0 mm 2 mps 750 mmHg 88%
02:00 +20°C° 0 mm 1 mps 750 mmHg 89%
03:00 +20°C° 0 mm 1 mps 749 mmHg 90%
04:00 +20°C° 0 mm 1 mps 749 mmHg 90%
05:00 +20°C° 0 mm 1 mps 749 mmHg 88%
06:00 +21°C° 0 mm 1 mps 749 mmHg 85%
07:00 +22°C° 0 mm 1 mps 749 mmHg 82%
08:00 +23°C° 0 mm 1 mps 748 mmHg 76%
09:00 +25°C° 0 mm 1 mps 748 mmHg 71%
10:00 +26°C° 0 mm 1 mps 748 mmHg 65%
11:00 +27°C° 0 mm 1 mps 748 mmHg 61%
12:00 +28°C° 0 mm 1 mps 747 mmHg 57%
13:00 +29°C° 0 mm 1 mps 747 mmHg 52%
14:00 +29°C° 0 mm 1 mps 747 mmHg 51%
15:00 +29°C° 0 mm 1 mps 747 mmHg 49%
16:00 +29°C° 0 mm 1 mps 746 mmHg 48%
17:00 +28°C° 0 mm 1 mps 746 mmHg 55%
18:00 +27°C° 0 mm 1 mps 746 mmHg 61%
19:00 +26°C° 0 mm 2 mps 746 mmHg 68%
20:00 +24°C° 0 mm 2 mps 746 mmHg 74%
21:00 +22°C° 0 mm 3 mps 746 mmHg 79%
22:00 +20°C° 0 mm 3 mps 746 mmHg 85%
23:00 +19°C° 0 mm 4 mps 746 mmHg 87%

8 August, Saturday

Time Temperature Precipitation Wind Pressure Humidity
00:00 +19°C° 0 mm 4 mps 746 mmHg 89%
01:00 +17°C° 0 mm 5 mps 746 mmHg 92%
02:00 +16°C° 0 mm 5 mps 746 mmHg 91%
03:00 +16°C° 0 mm 5 mps 746 mmHg 90%
04:00 +15°C° 0 mm 5 mps 746 mmHg 89%
05:00 +16°C° 0 mm 5 mps 746 mmHg 87%
06:00 +16°C° 0 mm 5 mps 746 mmHg 86%
07:00 +16°C° 0 mm 5 mps 746 mmHg 85%
08:00 +17°C° 0 mm 5 mps 746 mmHg 79%
09:00 +17°C° 0 mm 6 mps 746 mmHg 74%
10:00 +19°C° 0 mm 6 mps 746 mmHg 69%
11:00 +20°C° 0 mm 6 mps 746 mmHg 67%
12:00 +21°C° 0 mm 5 mps 746 mmHg 65%
13:00 +21°C° 0 mm 5 mps 747 mmHg 63%
14:00 +21°C° 0 mm 5 mps 746 mmHg 63%
15:00 +21°C° 0 mm 5 mps 746 mmHg 62%
16:00 +21°C° 0 mm 5 mps 746 mmHg 62%
17:00 +19°C° 0 mm 5 mps 746 mmHg 66%
18:00 +17°C° 0 mm 5 mps 746 mmHg 71%
19:00 +16°C° 0 mm 5 mps 746 mmHg 75%
20:00 +15°C° 0 mm 4 mps 746 mmHg 77%
21:00 +13°C° 0 mm 4 mps 746 mmHg 80%
22:00 +12°C° 0 mm 3 mps 746 mmHg 82%
23:00 +11°C° 0 mm 3 mps 746 mmHg 83%

9 August, Sunday

Time Temperature Precipitation Wind Pressure Humidity
00:00 +11°C° 0 mm 3 mps 746 mmHg 84%
01:00 +10°C° 0 mm 2 mps 746 mmHg 85%
02:00 +10°C° 0 mm 2 mps 745 mmHg 84%
03:00 +10°C° 0 mm 2 mps 745 mmHg 83%
04:00 +10°C° 0 mm 3 mps 745 mmHg 82%
05:00 +10°C° 0 mm 3 mps 745 mmHg 83%
06:00 +11°C° 0 mm 3 mps 745 mmHg 84%
07:00 +12°C° 0 mm 2 mps 745 mmHg 84%
08:00 +13°C° 0 mm 2 mps 745 mmHg 78%
09:00 +14°C° 0 mm 2 mps 745 mmHg 72%
10:00 +16°C° 0 mm 2 mps 745 mmHg 66%
11:00 +16°C° 0 mm 2 mps 745 mmHg 65%
12:00 +17°C° 0 mm 2 mps 745 mmHg 63%
13:00 +17°C° 0 mm 2 mps 745 mmHg 61%
14:00 +17°C° 0 mm 2 mps 745 mmHg 62%
15:00 +17°C° 0 mm 2 mps 745 mmHg 64%
16:00 +17°C° 0 mm 3 mps 745 mmHg 65%
17:00 +16°C° 0 mm 3 mps 745 mmHg 68%
18:00 +16°C° 0 mm 3 mps 745 mmHg 71%
19:00 +14°C° 0 mm 3 mps 745 mmHg 75%
20:00 +14°C° 0 mm 2 mps 745 mmHg 78%
21:00 +13°C° 0 mm 2 mps 744 mmHg 81%
22:00 +10°C° 0 mm 2 mps 744 mmHg 84%
23:00 +10°C° 0 mm 2 mps 745 mmHg 86%
Show more